Weather History for Evergreen, AL

Change the Weather History Date:

Monday, October 31, 2011

  Actual Average (KPRN) Record (KPRN)
Temperature  
Mean Temperature 52 °F -  
Max Temperature 73 °F 75 °F 87 °F (1951)
Min Temperature 33 °F 52 °F 31 °F (1954)
Degree Days  
Heating Degree Days 12    
Growing Degree Days 2 (Base 50)    
Moisture  
Dew Point 35 °F    
Average Humidity 63    
Maximum Humidity 92    
Minimum Humidity 21    
Precipitation  
Precipitation 0.00 in - - ()
Sea Level Pressure  
Sea Level Pressure 30.20 in    
Wind  
Wind Speed 2 mph (NNE)    
Max Wind Speed 9 mph    
Max Gust Speed -    
Visibility 10 miles    
Events      
Averages and records for this station are not official NWS values.
T = Trace of Precipitation, MM = Missing Value Source: NWS Daily Summary

Daily Weather History Graph

Daily Weather History Graph

Search for Another Location

Airport:

Trip Planner

Search our weather history database for the weather conditions in past years. The results will help you decide how hot, cold, wet, or windy it might be!

Date:

Astronomy

Oct. 31, 2011 Rise Set
Actual Time 7:02 AM CDT 6:00 PM CDT
Civil Twilight 6:37 AM CDT 6:25 PM CDT
Nautical Twilight 6:09 AM CDT 6:53 PM CDT
Astronomical Twilight 5:40 AM CDT 7:22 PM CDT
Moon 12:01 PM CDT (10/31) 10:42 PM CDT (10/31)
Length of Visible Light 11h 47m
Length of Day
10h 57m
Waxing Crescent, 30% of the Moon is Illuminated
Oct 31
Waxing Crescent
Nov 2
First Quarter
Nov 10
Full
Nov 18
Last Quarter
Nov 25
New

Hourly Weather History & Observations

Time (CDT) Temp. Windchill Dew Point Humidity Pressure Visibility Wind Dir Wind Speed Gust Speed Precip Events Conditions
12:53 AM 37.0 °F - 34.0 °F 89% 30.22 in 10.0 mi Calm Calm - N/A   Clear
1:53 AM 36.0 °F - 33.1 °F 89% 30.22 in 10.0 mi Calm Calm - N/A   Clear
2:53 AM 34.0 °F - 32.0 °F 92% 30.21 in 10.0 mi Calm Calm - N/A   Clear
3:53 AM 35.1 °F - 32.0 °F 89% 30.21 in 10.0 mi Calm Calm - N/A   Clear
4:53 AM 34.0 °F - 32.0 °F 92% 30.21 in 10.0 mi Calm Calm - N/A   Clear
5:53 AM 34.0 °F - 30.9 °F 89% 30.21 in 10.0 mi Calm Calm - N/A   Clear
6:53 AM 33.1 °F - 30.0 °F 89% 30.21 in 10.0 mi Calm Calm - N/A   Clear
7:53 AM 37.0 °F - 34.0 °F 89% 30.22 in 10.0 mi Calm Calm - N/A   Clear
8:53 AM 48.9 °F - 39.0 °F 69% 30.23 in 10.0 mi Calm Calm - N/A   Clear
9:53 AM 57.9 °F - 43.0 °F 58% 30.22 in 10.0 mi Calm Calm - N/A   Clear
10:53 AM 66.0 °F - 41.0 °F 40% 30.22 in 10.0 mi NNE 6.9 mph - N/A   Clear
11:53 AM 68.0 °F - 33.1 °F 27% 30.21 in 10.0 mi North 8.1 mph - N/A   Clear
12:53 PM 69.1 °F - 30.9 °F 24% 30.17 in 10.0 mi North 9.2 mph - N/A   Clear
1:53 PM 71.1 °F - 30.9 °F 23% 30.15 in 10.0 mi NNE 9.2 mph - N/A   Clear
2:53 PM 72.0 °F - 30.9 °F 22% 30.14 in 10.0 mi NNW 8.1 mph - N/A   Clear
3:53 PM 72.0 °F - 30.0 °F 21% 30.13 in 10.0 mi NE 6.9 mph - N/A   Clear
4:53 PM 71.1 °F - 33.1 °F 25% 30.14 in 10.0 mi NNE 5.8 mph - N/A   Clear
5:53 PM 64.9 °F - 34.0 °F 32% 30.14 in 10.0 mi North 5.8 mph - N/A   Clear
6:53 PM 55.0 °F - 39.0 °F 55% 30.17 in 10.0 mi Calm Calm - N/A   Clear
7:53 PM 48.9 °F - 39.9 °F 71% 30.19 in 10.0 mi Calm Calm - N/A   Clear
9:53 PM 44.1 °F 41.5 °F 39.0 °F 82% 30.22 in 10.0 mi East 4.6 mph - N/A   Clear
10:53 PM 42.1 °F - 37.9 °F 85% 30.23 in 10.0 mi Calm Calm - N/A   Clear
11:53 PM 41.0 °F - 37.0 °F 86% 30.22 in 10.0 mi Calm Calm - N/A   Clear